Kuchera_Ratio
0.0 0.0 0.0 0.0 0.0 0.0 0.0 0.0 0.0 0.0 0.0 0.0 0.0 0.0 0.0 0.0 0.0 0.0 0.0 0.0 0.0 0.0 0.0 0.0 0.0 0.0 0.0 0.0 0.0 0.0 0.0 0.0 0.0 0.0 0.0 0.0 0.0 0.0 0.0 0.0 0.0 0.0 0.0
0.0 0.0 0.0 0.0 0.0 0.0 0.0 0.0 0.0 0.0 0.0 0.0 0.0 0.0 0.0 0.0 0.0 0.0 0.0 0.0 0.0 0.0 0.0 0.0 0.0 0.0 0.0 0.0 0.0 0.0 0.0 0.0 0.0 0.0 0.0 0.0 0.0 0.0 0.0 0.0 0.0 0.0 0.0
0.0 0.0 0.0 0.0 0.0 0.0 0.0 0.0 0.0 0.0 0.0 0.0 0.0 0.0 0.0 0.0 0.0 0.0 0.0 0.0 0.0 0.0 0.0 0.0 0.0 0.0 0.0 0.0 0.0 0.0 0.0 0.0 0.0 0.0 0.0 0.0 0.0 0.0 0.0 0.0 0.0 0.0 0.0
0.0 0.0 0.0 0.0 0.0 0.0 0.0 0.0 0.0 0.0 0.0 0.0 0.0 0.0 0.0 0.0 0.0 0.0 0.0 0.0 0.0 0.0 0.0 0.0 0.0 0.0 0.0 0.0 0.0 0.0 0.0 0.0 0.0 0.0 0.0 0.0 0.0 0.0 0.0 0.0 0.0 0.0 0.0
0.0 0.0 0.0 0.0 0.0 0.0 0.0 0.0 0.0 0.0 0.0 0.0 0.0 0.0 0.0 0.0 0.0 0.0 0.0 0.0 0.0 0.0 0.7 1.8 0.5 0.0 0.0 0.0 0.0 0.0 0.0 0.0 0.0 0.0 0.0 0.0 0.0 1.4 0.0 0.0 0.0 0.0 0.0
0.0 0.0 0.0 0.0 0.0 0.0 0.0 0.0 0.0 0.0 0.0 0.0 0.0 0.0 0.0 0.0 0.0 0.0 0.0 0.0 1.1 2.2 2.6 2.6 3.8 0.9 0.0 0.0 0.0 0.0 0.0 0.0 0.0 0.0 0.0 0.0 0.0 0.0 0.0 0.0 0.0 0.8 2.9
0.1 0.0 0.0 0.0 0.0 0.0 0.0 0.0 0.0 0.0 0.0 0.0 0.0 0.0 0.0 0.3 0.0 0.0 2.2 2.3 3.7 4.7 5.3 6.6 6.1 2.4 2.4 1.9 0.0 0.0 0.0 0.0 0.0 0.0 2.8 0.0 0.9 0.0 0.0 0.6 0.1 0.5 0.5
3.9 1.2 0.6 0.0 0.0 0.0 0.0 0.0 0.0 0.0 0.0 0.0 0.9 1.2 1.3 2.2 0.0 0.4 3.1 5.9 7.1 6.4 6.3 6.7 6.7 7.4 6.3 5.0 3.3 3.2 1.2 0.0 0.0 0.0 0.0 0.0 0.0 0.0 0.0 0.0 0.0 0.0 0.5
7.5 6.5 5.3 4.2 1.0 1.8 1.5 0.9 2.1 1.8 1.5 2.4 3.1 3.0 3.1 4.3 0.0 0.6 4.9 6.7 7.2 7.5 7.3 6.1 5.8 6.4 2.6 2.3 7.3 7.6 4.8 3.8 0.0 0.0 0.0 0.0 0.0 0.0 0.0 0.6 4.7 5.4 5.3
10.5 9.5 9.3 7.7 7.7 5.7 5.6 5.9 4.2 5.7 5.3 4.2 5.6 6.5 4.1 5.7 0.6 1.4 5.4 7.3 8.7 8.4 7.1 5.7 3.9 3.7 1.6 2.7 7.0 8.0 9.2 6.4 4.2 3.0 1.9 0.9 0.1 1.1 2.2 0.0 3.0 6.6 6.0
9.4 9.7 9.3 8.9 9.6 9.1 7.9 8.8 8.0 8.7 8.4 8.0 7.8 7.2 6.6 4.9 3.7 2.3 3.6 6.8 7.5 8.4 8.5 7.6 5.8 2.4 2.5 3.5 4.9 6.7 7.1 4.4 3.8 5.6 5.8 4.7 3.5 3.5 3.1 2.1 1.7 3.2 6.5
9.7 10.4 9.9 9.8 9.0 8.4 8.9 8.7 8.6 8.4 8.5 8.1 8.3 8.2 7.0 5.8 3.0 2.9 3.2 4.8 4.1 7.2 8.5 7.9 6.5 3.0 2.9 3.0 4.7 3.6 2.4 3.3 5.9 7.0 7.7 7.9 7.3 6.9 6.1 4.8 4.5 3.9 3.3
10.4 11.0 10.3 9.8 9.6 8.8 8.8 8.9 8.8 7.9 7.6 7.8 7.4 8.3 8.7 7.5 5.7 2.9 3.2 3.5 5.0 8.1 7.8 6.8 5.5 2.8 2.6 2.5 4.1 2.5 3.4 6.7 7.6 9.3 9.5 8.9 7.5 6.1 6.3 7.6 7.0 6.9 7.5
11.5 11.2 10.5 10.7 10.2 9.2 8.4 7.8 8.0 7.9 8.0 6.7 7.1 7.8 8.2 8.0 7.5 6.7 6.4 5.3 5.1 7.5 7.1 5.7 4.9 4.1 4.4 5.3 4.2 2.6 5.2 5.7 7.4 8.2 8.6 7.7 8.1 9.7 10.4 9.0 11.3 10.9 12.4
11.4 11.2 10.7 9.3 10.1 9.9 9.1 8.5 7.8 6.3 5.0 6.8 6.1 5.4 7.2 8.1 6.6 4.2 4.5 5.9 5.6 6.1 5.8 7.6 8.2 8.8 8.8 8.1 6.3 5.6 6.9 6.8 8.1 7.8 9.3 11.1 11.4 11.0 11.3 10.1 11.3 12.4 14.2
11.8 10.4 9.5 9.5 9.7 9.8 9.9 10.0 7.5 6.4 5.5 5.1 4.0 4.4 4.8 2.9 2.9 3.0 3.4 3.9 4.3 4.0 8.4 9.9 10.2 9.6 9.2 9.0 9.2 9.3 8.7 7.8 7.9 9.0 10.0 10.7 12.1 12.3 12.4 12.4 12.4 13.5 14.3
10.5 10.5 9.2 10.0 9.3 9.7 9.5 9.3 11.2 9.5 6.0 5.8 5.7 4.8 4.2 4.1 3.3 2.5 3.2 4.5 4.4 4.3 9.6 9.5 9.8 9.7 9.5 9.2 9.4 9.8 11.4 10.3 9.5 10.4 11.2 11.8 12.0 12.2 12.4 13.1 13.5 13.8 14.4
10.9 9.8 9.8 10.1 9.6 9.4 9.3 9.0 8.2 10.0 10.7 9.3 4.8 5.3 5.0 4.5 3.8 2.9 3.1 3.3 7.4 5.1 8.3 9.1 9.6 9.1 8.9 9.6 9.8 10.5 10.6 10.8 12.0 11.8 12.1 12.1 12.5 13.0 13.6 13.5 13.2 14.0 14.1
12.5 10.7 10.5 10.0 10.1 9.8 9.9 9.7 9.0 9.4 9.7 9.1 7.8 4.8 3.0 2.4 1.6 0.6 0.3 6.1 7.0 7.7 8.2 8.3 7.9 8.4 8.8 9.0 9.1 10.1 10.5 11.3 11.9 12.5 12.6 12.8 12.8 13.0 13.5 13.0 13.1 12.7 13.4
12.8 10.3 9.9 11.0 11.5 10.7 11.4 11.0 10.5 9.8 9.4 9.6 9.4 7.8 6.3 5.3 7.4 6.6 4.9 5.7 8.5 7.5 6.3 8.0 8.4 8.2 8.8 9.3 9.8 11.0 12.2 12.3 12.3 12.9 12.8 12.4 12.5 12.6 13.5 13.7 13.6 14.2 14.3
12.7 12.4 8.1 11.7 12.0 10.7 11.7 11.8 11.1 11.0 10.7 10.1 9.0 6.7 6.2 7.7 7.7 7.3 7.2 6.6 6.6 7.2 6.7 7.0 7.3 8.4 9.1 9.3 10.3 11.4 12.6 12.4 12.7 12.6 12.6 12.7 12.8 13.5 13.1 13.2 13.7 14.1 14.6
13.9 13.3 12.6 11.7 12.2 12.3 12.1 11.5 11.8 11.7 11.4 11.2 10.3 10.1 5.8 7.0 8.8 8.9 9.0 9.7 8.9 6.9 6.2 7.2 8.2 8.5 9.2 10.2 11.0 11.5 12.4 13.0 12.3 13.2 12.9 13.3 13.2 13.2 13.6 14.0 14.5 14.8 15.1
15.3 14.6 14.2 13.3 12.4 12.2 12.4 12.2 12.6 12.7 12.3 11.9 11.2 12.5 11.0 8.6 8.7 10.5 10.3 10.2 10.2 10.5 10.0 10.6 10.2 11.2 10.6 11.4 9.8 10.4 12.2 12.8 12.4 12.2 13.4 13.8 14.3 14.3 14.4 15.0 15.2 16.0 16.0
15.8 15.5 14.9 14.4 13.7 13.0 12.8 12.9 13.1 13.1 13.2 12.6 12.5 12.6 12.4 12.0 10.7 10.9 12.1 11.7 12.0 12.1 11.9 12.5 12.2 12.1 12.1 12.5 12.2 12.2 12.3 12.1 11.8 13.0 13.6 14.2 14.9 14.8 15.0 16.0 16.2 16.5 16.7
15.2 15.9 16.0 15.6 15.1 14.1 14.0 13.1 13.1 13.5 13.9 14.0 13.6 13.2 12.8 13.1 12.8 12.5 12.2 12.6 13.0 13.0 13.5 13.7 13.7 13.9 14.4 14.9 14.4 14.1 13.7 12.9 14.1 14.7 15.1 15.8 16.3 16.6 17.1 16.8 17.2 17.2 17.7
16.6 16.2 16.0 15.8 15.8 15.3 14.6 14.0 13.7 13.3 13.8 13.5 13.9 13.6 13.4 13.7 13.8 13.4 13.2 13.7 14.4 14.4 14.1 14.0 14.3 15.3 15.2 15.2 15.6 15.6 13.7 12.9 13.2 12.2 15.8 17.0 17.8 18.0 17.9 18.2 18.3 18.6 18.4